Terminal Aerodrome Forecast
Issued by NWS St Louis, MO

Home | Current Version | Previous Version | Text Only | Print | Product List | Glossary On
Versions: 1 2 3 4 5 6 7 8 9 10 11 12 13 14 15 16 17 18 19 20 21 22 23 24 25 26 27 28 29 30 31 32 33 34
000
FTUS43 KLSX 270658 AAB
TAFSTL
TAF AMD
KSTL 270658Z 2707/2812 21008KT 6SM -SHRA VCTS SCT015 BKN080CB
      OVC120
      TEMPO 2707/2708 3SM SHRA BKN015
     FM270900 16007KT P6SM BKN080
     FM271500 18012KT 6SM -SHRA VCTS SCT025 OVC050CB
     FM272100 18014G22KT P6SM VCTS BKN040CB
     FM280000 17010KT P6SM BKN050=

USA.gov is the U.S. government's official web portal to all federal, state and local government web resources and services.